[[{"header":{"parameterUnit":"m.s-1","parameterCategory":1,"la1":30.2991,"la2":30.254,"lo1":-89.0895,"lo2":-89.0444,"dy":0.0017,"dx":0.0017,"nx":28,"ny":28,"refTime":"2024-10-12T03:00:00:Z","depth":0,"parameterNumber":2,"parameterNumberName":"U-component_of_WINDS"},"data":[0,0,0,0,0,0,0,0,0,0,0,0,0,0,0,0,0,0,0,0,0,0,0,0,0,0,0,0,0,0,0,0,0,0,0,0,0,0,0,0,0,0,0,0,0,0,0,0,0,0,0,0,0,0,0,0,0,0,1.1952,1.1952,0,1.2016,1.2017,1.2018,1.2027,1.2026,1.2026,1.2025,1.2093,1.2096,1.2098,0,0,0,0,0,0,0,0,0,0,0,0,0,1.1836,1.1838,1.1951,1.1952,1.1953,1.2016,1.2017,1.2018,1.2027,1.2026,1.2026,1.2025,1.2093,1.2095,1.2098,0,0,0,0,0,0,0,0,0,0,0,0,0,1.1892,1.1839,1.1951,1.1965,1.1967,1.2016,1.2017,1.2018,1.2027,1.2026,1.2025,1.2025,1.2092,1.2095,1.2099,1.2139,0,0,1.211,1.2111,0,0,0,0,0,0,0,0,1.1889,1.1896,1.1962,1.1964,1.1966,1.2013,1.2002,1.2059,1.2027,1.2004,1.2025,1.2024,1.2067,1.2073,1.2087,1.2142,1.2145,1.211,1.2112,1.2114,1.2115,0,0,0,0,0,0,0,1.1885,1.1894,1.1977,1.1963,1.1966,1.1968,1.1975,1.2013,1.204,1.2006,1.2007,1.2015,1.2068,1.2084,1.2089,1.2146,1.211,1.2113,1.2115,1.2117,1.2237,1.2238,0,0,0,0,0,0,1.1878,1.189,1.1975,1.1979,1.1925,1.1971,1.1979,1.1999,1.204,1.2045,1.2015,1.2015,1.2078,1.2085,1.2091,1.2141,1.2114,1.2117,1.2119,1.2236,1.2237,1.2238,0,0,0,0,0,0,1.1876,1.1886,1.1973,1.1935,1.1946,1.1974,1.1996,1.2001,1.2016,1.2047,1.2052,1.2026,1.2078,1.2086,1.2127,1.2143,1.2119,1.2122,1.2235,1.2236,1.2238,1.224,0,0,0,0,0,0,1.1873,1.1885,1.19,1.1935,1.1948,1.2007,1.1997,1.2002,1.2022,1.2022,1.2058,1.2063,1.2078,1.2121,1.213,1.2148,1.2125,1.2233,1.2235,1.2237,1.2239,1.2242,1.2244,0,0,0,0,0,1.1868,1.1899,1.1901,1.1911,1.1968,1.2008,1.2015,1.2031,1.2023,1.2039,1.2059,1.2062,1.214,1.2126,1.2136,1.2154,1.2232,1.2235,1.2237,1.2237,1.2241,1.2244,0,0,0,0,0,0,1.1866,1.1904,1.1907,1.1949,1.1975,1.2009,1.203,1.2034,1.2063,1.2062,1.208,1.2088,1.2128,1.2145,1.2129,1.2195,1.2186,1.219,1.2182,1.2186,1.2188,1.2183,1.2128,0,0,0,0,0,1.1871,1.1899,1.1931,1.1966,1.1978,1.2002,1.202,1.2029,1.2057,1.2068,1.2091,1.2118,1.2148,1.2168,1.2198,1.2241,1.2249,1.2259,1.2262,1.2264,1.2267,1.2291,1.2295,1.2246,1.2246,1.2246,0,0,1.188,1.1904,1.1921,1.1966,1.1987,1.2016,1.2011,1.2042,1.2064,1.2073,1.2112,1.213,1.2161,1.2203,1.2223,1.2219,1.2282,1.2267,1.2268,1.2271,1.2293,1.2298,1.2302,1.2248,1.2247,1.2247,0,0,1.1912,1.1934,1.1964,1.1986,1.2017,1.2032,1.204,1.2073,1.2085,1.2124,1.2131,1.2158,1.221,1.2232,1.225,1.2289,1.2293,1.2299,1.2313,1.2335,1.2339,1.2343,1.2356,1.2361,1.2302,1.2302,1.2302,0,1.192,1.1965,1.198,1.2011,1.203,1.2038,1.207,1.209,1.213,1.2143,1.2138,1.2203,1.2225,1.2271,1.2281,1.2295,1.2304,1.2295,1.2337,1.2341,1.2344,1.2357,1.2363,1.2303,1.2303,1.2303,1.2303,0,1.1972,1.2003,1.2024,1.2062,1.2083,1.2114,1.2135,1.2155,1.2162,1.2178,1.2218,1.2244,1.2279,1.2291,1.2299,1.2339,1.2335,1.2333,1.2324,1.2349,1.2362,1.2367,1.2303,1.2303,1.2303,1.2303,0,0,1.2005,1.2051,1.2058,1.2075,1.211,1.2134,1.2165,1.2199,1.2215,1.2243,1.2269,1.2313,1.2311,1.2332,1.2342,1.2362,1.2391,1.2358,1.2359,1.2363,1.2435,1.2436,1.2441,1.2393,1.2394,1.2395,1.2432,0,1.2041,1.2097,1.2111,1.2159,1.2187,1.2195,1.2222,1.2247,1.2262,1.2288,1.2306,1.2336,1.2332,1.2344,1.2364,1.2383,1.2405,1.2381,1.2418,1.2419,1.241,1.2448,1.2449,1.2483,1.2437,1.2438,1.2439,0,1.2091,1.2118,1.2168,1.2199,1.2211,1.2236,1.2267,1.2292,1.232,1.233,1.2352,1.236,1.2393,1.2382,1.2427,1.241,1.2426,1.2438,1.2439,1.2443,1.243,1.2452,1.2494,1.2499,1.2447,1.2446,1.2445,0,1.2109,1.2159,1.2195,1.2209,1.2246,1.2263,1.2279,1.2306,1.2325,1.2352,1.2365,1.2396,1.2413,1.2437,1.2454,1.2444,1.2497,1.2488,1.2506,1.2506,1.2517,1.2516,1.2561,1.2528,1.2528,1.2528,1.2528,0,1.2148,1.2178,1.2203,1.2225,1.2259,1.2276,1.2309,1.2325,1.2349,1.2374,1.2383,1.2407,1.2428,1.2454,1.2467,1.2502,1.251,1.2519,1.2522,1.2518,1.2517,1.2529,1.2527,1.2529,1.2529,1.2529,1.2528,0,1.2174,1.2192,1.2232,1.2263,1.2272,1.2295,1.2323,1.2344,1.236,1.2392,1.24,1.2424,1.2456,1.2475,1.2515,1.2524,1.2562,1.2565,1.2553,1.2554,1.2571,1.2569,1.2625,1.2633,1.2595,1.2595,1.2596,0,1.2197,1.222,1.2254,1.2271,1.2288,1.2316,1.2335,1.2352,1.2371,1.2404,1.2422,1.2454,1.248,1.253,1.2551,1.2582,1.2585,1.2602,1.259,1.2584,1.2585,1.2583,1.2585,1.2605,1.2605,1.2605,1.2605,0,1.2236,1.2243,1.2271,1.2301,1.2323,1.2348,1.2372,1.2386,1.2407,1.2428,1.246,1.2481,1.2521,1.2553,1.2585,1.2602,1.2607,1.2609,1.2615,1.2611,1.2603,1.2607,1.2558,1.2608,1.2608,1.2607,1.2607,1.2607,1.2261,1.2281,1.2308,1.2338,1.2358,1.2381,1.2402,1.242,1.2447,1.2481,1.2489,1.2522,1.2549,1.2593,1.261,1.2636,1.2634,1.2642,1.2644,1.2646,1.2646,1.2598,1.2642,1.2642,1.2642,1.2642,1.2642,0,1.23,1.2317,1.2344,1.2378,1.2401,1.2404,1.2431,1.245,1.2479,1.2503,1.2529,1.2565,1.2595,1.2619,1.265,1.2666,1.2669,1.2674,1.2673,1.2676,1.2647,1.2639,1.2671,1.2671,1.2671,1.2671,1.2671,1.2671,1.2322,1.2357,1.2368,1.2413,1.243,1.2463,1.2478,1.2499,1.2518,1.2558,1.2583,1.2598,1.2622,1.2654,1.2682,1.2688,1.2699,1.2703,1.2709,1.2681,1.2678,1.2675,1.2668,1.2705,1.2705,1.2736,1.2736,1.2736]},{"header":{"parameterUnit":"m.s-1","parameterCategory":1,"la1":30.2991,"la2":30.254,"lo1":-89.0895,"lo2":-89.0444,"dy":0.0017,"dx":0.0017,"nx":28,"ny":28,"refTime":"2024-10-12T03:00:00:Z","depth":0,"parameterNumber":3,"parameterNumberName":"V-component_of_WINDS"},"data":[0,0,0,0,0,0,0,0,0,0,0,0,0,0,0,0,0,0,0,0,0,0,0,0,0,0,0,0,0,0,0,0,0,0,0,0,0,0,0,0,0,0,0,0,0,0,0,0,0,0,0,0,0,0,0,0,0,0,2.9887,2.9886,0,2.9843,2.9842,2.9842,2.9849,2.985,2.985,2.9851,2.98,2.9798,2.9796,0,0,0,0,0,0,0,0,0,0,0,0,0,2.9969,2.9967,2.9887,2.9886,2.9886,2.9843,2.9842,2.9842,2.9849,2.985,2.9851,2.9852,2.98,2.9798,2.9795,0,0,0,0,0,0,0,0,0,0,0,0,0,2.993,2.9967,2.9887,2.9884,2.9883,2.9843,2.9842,2.9841,2.9849,2.985,2.9851,2.9852,2.9801,2.9798,2.9795,2.9752,0,0,2.9785,2.9784,0,0,0,0,0,0,0,0,2.9932,2.9927,2.9885,2.9884,2.9883,2.9853,2.9852,2.9811,2.9848,2.9862,2.9851,2.9853,2.9816,2.9812,2.9801,2.975,2.9748,2.9785,2.9783,2.9782,2.9781,0,0,0,0,0,0,0,2.9935,2.9929,2.9869,2.9884,2.9883,2.9883,2.9878,2.9845,2.9832,2.9861,2.9861,2.9856,2.9816,2.9804,2.9799,2.9747,2.9785,2.9782,2.978,2.9779,2.9655,2.9654,0,0,0,0,0,0,2.9939,2.9931,2.987,2.9868,2.9911,2.988,2.9875,2.9861,2.9833,2.983,2.9855,2.9857,2.9808,2.9803,2.9798,2.9743,2.9782,2.9779,2.9777,2.9657,2.9655,2.9653,0,0,0,0,0,0,2.9941,2.9934,2.9872,2.9899,2.9892,2.9878,2.9861,2.986,2.9848,2.9829,2.9826,2.9846,2.9809,2.9802,2.9763,2.9742,2.9778,2.9775,2.9658,2.9656,2.9654,2.9636,0,0,0,0,0,0,2.9943,2.9934,2.992,2.9899,2.989,2.9841,2.986,2.9858,2.9843,2.9845,2.9819,2.9816,2.981,2.9768,2.976,2.9738,2.9772,2.966,2.9657,2.9655,2.9639,2.9634,2.963,0,0,0,0,0,2.9946,2.9916,2.9919,2.9912,2.9872,2.984,2.9834,2.9829,2.9842,2.9825,2.9813,2.9817,2.9746,2.9764,2.9755,2.9732,2.9661,2.9658,2.9655,2.9641,2.9635,2.963,0,0,0,0,0,0,2.9933,2.9913,2.9917,2.9879,2.9861,2.9841,2.9821,2.9824,2.98,2.9802,2.9795,2.9789,2.9749,2.9737,2.9757,2.9687,2.9705,2.97,2.9697,2.9691,2.9687,2.969,2.977,0,0,0,0,0,2.9926,2.9903,2.9887,2.9855,2.9846,2.9835,2.9821,2.9818,2.9798,2.979,2.9775,2.9754,2.9726,2.9708,2.9682,2.9637,2.963,2.9617,2.9612,2.9609,2.9604,2.9576,2.9569,2.9643,2.9643,2.9643,0,0,2.991,2.9897,2.9883,2.9852,2.9838,2.9812,2.9828,2.9801,2.9781,2.9785,2.9748,2.9736,2.9711,2.9668,2.9649,2.9657,2.9582,2.9605,2.9602,2.9599,2.9572,2.9565,2.9558,2.9641,2.9641,2.9642,0,0,2.9869,2.9858,2.9829,2.9815,2.9793,2.9786,2.9779,2.9758,2.9751,2.9713,2.9715,2.969,2.9644,2.9626,2.961,2.956,2.9561,2.9551,2.9527,2.95,2.9494,2.9489,2.9468,2.9461,2.9547,2.9547,2.9547,0,2.9851,2.9815,2.9813,2.9785,2.977,2.9775,2.9744,2.9729,2.97,2.9688,2.9698,2.9639,2.9623,2.9574,2.9562,2.955,2.9539,2.9554,2.9496,2.949,2.9485,2.9465,2.9458,2.9546,2.9546,2.9546,2.9546,0,2.9794,2.9768,2.9747,2.972,2.9703,2.9674,2.9664,2.9646,2.9645,2.9636,2.9595,2.9576,2.9545,2.9534,2.9532,2.9484,2.9489,2.9498,2.9515,2.9477,2.9458,2.945,2.9544,2.9544,2.9545,2.9545,0,0,2.9742,2.9714,2.9706,2.9693,2.967,2.9648,2.9618,2.9589,2.9573,2.9552,2.9524,2.9484,2.9491,2.9473,2.9469,2.9445,2.9403,2.9456,2.9455,2.9444,2.9345,2.9338,2.9329,2.9405,2.9403,2.9402,2.9346,0,2.9697,2.9646,2.9642,2.9594,2.9569,2.9572,2.9545,2.9526,2.9516,2.949,2.9478,2.9449,2.9462,2.9451,2.9428,2.9413,2.9382,2.9417,2.9375,2.9373,2.9379,2.932,2.9312,2.9261,2.9339,2.9338,2.9337,0,2.9637,2.9616,2.9566,2.9544,2.9533,2.9509,2.9481,2.9458,2.9435,2.9429,2.9409,2.9407,2.9372,2.9392,2.9342,2.9365,2.9348,2.9338,2.9335,2.9329,2.9352,2.931,2.9244,2.9236,2.9326,2.9327,2.9327,0,2.9601,2.956,2.9524,2.9513,2.9487,2.947,2.9458,2.9436,2.9418,2.9393,2.9381,2.9351,2.9335,2.931,2.9299,2.9315,2.9248,2.9268,2.9239,2.9239,2.9224,2.9225,2.9152,2.9216,2.9216,2.9216,2.9217,0,2.955,2.9518,2.9508,2.9486,2.9449,2.9444,2.9408,2.9396,2.9377,2.935,2.935,2.9324,2.9313,2.9284,2.9275,2.9233,2.9226,2.9218,2.9215,2.9217,2.9217,2.9203,2.9206,2.9214,2.9215,2.9215,2.9216,0,2.9503,2.9496,2.9456,2.9435,2.9429,2.9403,2.9383,2.936,2.935,2.9316,2.9307,2.9291,2.9257,2.9244,2.9203,2.9196,2.9147,2.9148,2.9155,2.9154,2.9125,2.9127,2.904,2.9026,2.9101,2.9101,2.91,0,2.947,2.9446,2.9423,2.9406,2.9394,2.9366,2.9348,2.9341,2.9322,2.9293,2.9272,2.9239,2.9212,2.9157,2.9139,2.9107,2.9106,2.9077,2.9101,2.9102,2.9102,2.9103,2.9099,2.9072,2.9072,2.9071,2.9071,0,2.9411,2.9408,2.9384,2.9357,2.9336,2.9314,2.9292,2.9278,2.9267,2.9245,2.9211,2.919,2.9148,2.9113,2.908,2.9064,2.9063,2.9064,2.9055,2.9055,2.9058,2.9053,2.9141,2.9065,2.9066,2.9066,2.9066,2.9067,2.9368,2.9346,2.9326,2.9298,2.9281,2.9261,2.9237,2.9225,2.9198,2.9164,2.9161,2.9124,2.9098,2.9053,2.9035,2.9004,2.9011,2.8999,2.8995,2.8992,2.8989,2.9065,2.8998,2.8998,2.8998,2.8998,2.8998,0,2.9307,2.9294,2.9268,2.9239,2.9216,2.9221,2.9197,2.9176,2.9144,2.9122,2.9095,2.9055,2.9021,2.9001,2.8966,2.8944,2.8943,2.8935,2.8935,2.8931,2.8986,2.8996,2.8936,2.8936,2.8936,2.8936,2.8936,2.8936,2.9272,2.9235,2.9229,2.9181,2.9168,2.9133,2.9119,2.9098,2.908,2.9036,2.9008,2.8996,2.8973,2.8936,2.8904,2.8899,2.8884,2.8875,2.887,2.8921,2.8927,2.8933,2.8942,2.8873,2.8873,2.8817,2.8817,2.8816]}]]